www.pogodaiklimat.ru

Погода и климат >> Архив погоды >> Россия >> Красноярский край >> Норильск


АРХИВ ПОГОДЫ в Норильске

Время (UTC), дата Ветер
(напр.,м/с)
 
Видим.   Явления Облачность Т
(С)
Тd
(С)
f
(%)
Тe
(С)
Тes
(С)
Комфортность P
(гПа)
Po
(гПа)
Тmin
(С)
Tmax
(С)
R
(мм)
R24
(мм)
S
(см)
21 19.03 ЮВ 2 1000 м ливневой снег 10/10 600 м
[Cb cap]
-7.6 -11.1 76 -12 -12 тепло 1019.9 1011.4
00 20.03 В 2 4000 м слаб. ливневой снег 10/10 600 м
[Cb cap]
-9.4 -12.4 79 -14 -14 тепло 1019.9 1011.4 -9.5 3 74
03 20.03 В 3 2000 м слаб. ливневой снег 10/10 600 м
[Cb cap]
-9.2 -10.8 88 -15 -15 тепло 1020.7 1012.2
06 20.03 В 4 4000 м слаб. ливневой снег {метель} 10/10 600 м
[Cb cap]
-8.0 -10.3 83 -15 -15 тепло 1020.8 1012.3
09 20.03 В 4 4000 м слаб. ливневой снег 10/10 600 м
[Cb cap]
-8.2 -10.5 83 -15 -15 тепло 1020.4 1011.9
12 20.03 В 6 4000 м слаб. ливневой снег {метель} 10/10 600 м
[Cb cap]
-8.1 -10.3 84 -16 -16 тепло 1019.5 1011.0 -7.9 3
15 20.03 ЮВ 7-11
{11}
10 км позёмок {ливн. осадки} 8/8 600 м
[Sc]
-7.0 -9.5 82 -16 -16 тепло 1017.0 1008.6
18 20.03 ЮВ 8-11
{14}
4000 м слаб. ливневой снег {метель} 10/10 600 м
[Cb cap]
-7.8 -9.6 87 -17 -17 тепло 1014.8 1006.3
21 20.03 В 11-11
{16}
2000 м слаб. ливневой снег {метель} 10/10 600 м
[Cb cap]
-6.8 -8.8 86 -17 -17 тепло 1009.6 1001.3
00 21.03 В 10-15
{15}
2000 м слаб. ливневой снег {метель} 10/10 600 м
[Cb cap]
-5.2 -6.6 90 -15 -15 тепло 1005.3 997.0 -8.1 1 75
03 21.03 Ю 10-15
{15}
2000 м слаб. ливневой снег {метель} 10/10 600 м
[Cb cap]
-3.0 -5.4 83 -12 -12 тепло 1001.8 993.7
06 21.03 ЮЗ 10-15
{19}
2000 м слаб. ливневой снег {метель} 10/8 600 м
[Cb cap Ac trans]
-2.1 -5.3 79 -11 -11 тепло 1000.5 992.4
09 21.03 ЮЗ 7-11
{16}
4000 м слаб. ливневой снег {метель} 10/6 600 м
[Cb cap Ac trans]
-2.0 -5.5 77 -9 -9 тепло 1000.5 992.4
12 21.03 З 5
{11}
10 км позёмок {ливн. осадки} 9/5 600 м
[Sc Ac trans]
-2.4 -5.3 80 -9 -9 тепло 1001.0 992.9 -1.8 1
15 21.03 З 4 4000 м слаб. ливневой снег {метель} 10/10 600 м
[Cb cap]
-2.8 -5.1 84 -9 -9 тепло 1001.3 993.2
18 21.03 З 4 4000 м слаб. ливневой снег {метель} 10/10 600 м
[Cb cap]
-2.6 -4.9 84 -9 -9 тепло 1001.3 993.2
21 21.03 З 6 2000 м слаб. ливневой снег {метель} 10/10 600 м
[Cb cap]
-3.6 -5.6 86 -11 -11 тепло 1001.2 993.1
00 22.03 З 4
{10}
4000 м слаб. ливневой снег {метель} 10/10 600 м
[Cb cap]
-6.0 -8.3 84 -13 -13 тепло 1002.3 994.1 -6.0 1 77
03 22.03 С 3 4000 м слаб. ливневой снег 9/8 2000 м
[Cb calv Ac trans Ci fib]
-9.1 -10.7 88 -15 -15 тепло 1004.3 995.5
06 22.03 З 5 4000 м слаб. снег 6/0 2000 м
[Ac trans Cs]
-10.0 -13.2 77 -18 -16 тепло 1005.5 997.1
09 22.03 З 7-10
{11}
50 км позёмок {снег} 4/0
[Ci fib]
-13.8 -13.6 100 -24 -23 по сезону 1007.8 999.3
12 22.03 З 6
{11}
50 км позёмок {снег} 3/0
[Ci fib]
-16.8 -20.2 75 -27 -27 по сезону 1010.4 1001.8 -6.0 0.4
15 22.03 З 3 20 км {метель} ясно -20.0 -23.3 75 -28 -28 по сезону 1012.6 1003.8
18 22.03 СЗ 2 20 км {метель} ясно -23.0 -26.3 74 -29 -29 по сезону 1014.7 1005.7
21 22.03 штиль 0 20 км ясно -26.1 -29.3 74 -26 -26 по сезону 1016.2 1007.1
00 23.03 ЮВ 2 20 км ясно -27.1 -30.2 75 -34 -34 опасность
обморожения
1016.7 1007.6 -27.3 76
03 23.03 ЮВ 3 50 км ясно -21.0 -23.5 80 -29 -27 по сезону 1017.2 1008.3
06 23.03 ЮВ 2 50 км ясно -20.8 -23.3 80 -27 -23 по сезону 1017.2 1008.3
09 23.03 ЮВ 3 50 км ясно -18.6 -23.6 65 -26 -24 по сезону 1017.5 1008.7
12 23.03 ЮВ 3 50 км ясно -18.9 -23.8 65 -26 -26 по сезону 1016.9 1008.1 -18.5
15 23.03 ЮВ 4 20 км ясно -18.4 -23.4 65 -27 -27 по сезону 1016.6 1007.8
18 23.03 ЮВ 1 4000 м слаб. ливневой снег 10/6 600 м
[Cb cap Ac trans]
-16.3 -19.7 75 -19 -19 тепло 1016.1 1007.4
21 23.03 ЮВ 5 10 км {ливн. осадки} 9/6 600 м
[Sc Ac trans]
-14.4 -17.9 75 -23 -23 по сезону 1015.3 1006.7
00 24.03 В 6
{10}
4000 м слаб. снег 10/0 2000 м
[Ac As]
-12.5 -16.0 75 -21 -21 тепло 1014.6 1006.0 -19.6 0.5 77
03 24.03 В 7-11
{11}
4000 м слаб. ливневой снег {метель} 10/10 600 м
[Cb cap]
-11.6 -13.6 85 -21 -21 по сезону 1014.3 1005.7
06 24.03 В 6
{12}
4000 м слаб. ливневой снег {метель} 10/8 600 м
[Cb cap Ac und]
-9.5 -12.1 81 -18 -18 по сезону 1014.7 1006.2
09 24.03 В 5 10 км позёмок {ливн. осадки} 9/8 600 м
[Cb cap Ac As]
-8.2 -10.9 81 -16 -16 тепло 1015.0 1006.5
12 24.03 В 4 4000 м слаб. ливневой снег {метель} 10/8 600 м
[Cb cap Ac und]
-8.0 -10.3 83 -15 -15 тепло 1015.8 1007.3 -7.8 0.5
15 24.03 В 3 20 км {ливн. осадки} 4/3 600 м
[Sc Ac trans]
-8.9 -10.9 85 -15 -15 тепло 1016.4 1007.9
18 24.03 ЮВ 1 4000 м слаб. ливневой снег 8/6 600 м
[Cb cap Ac trans]
-10.0 -11.2 91 -12 -12 тепло 1016.7 1008.2
21 24.03 В 1 20 км {ливн. осадки} 8/6 600 м
[Sc Ac trans]
-9.3 -10.5 91 -12 -12 тепло 1016.3 1007.8
00 25.03 ЮВ 4 10 км {ливн. осадки} 10/8 600 м
[Sc Ac As]
-6.3 -8.2 86 -13 -13 тепло 1015.5 1007.1 -10.0 0.3 75
03 25.03 В 6
{12}
10 км слаб. снег {метель} 10/8 600 м
[Sc Ac trans]
-3.8 -7.9 73 -11 -11 тепло 1014.6 1006.3
06 25.03 Ю 4
{10}
20 км {снег, метель} 9/5 600 м
[Sc Ac trans]
-2.4 -7.6 67 -8 -7 тепло 1014.6 1006.3
09 25.03 Ю 9-15
{16}
2000 м слаб. ливневой снег {метель} 10/10 600 м
[Cb cap]
-2.2 -6.1 75 -11 -11 тепло 1014.1 1005.8
12 25.03 ЮЗ 9-15
{17}
2000 м слаб. ливневой снег {метель} 10/8 600 м
[Cb cap Ac und]
-1.8 -5.6 75 -10 -10 тепло 1014.7 1006.5 -1.7 0.4
15 25.03 ЮЗ 10-18
{19}
2000 м метель {ливн. осадки} 10/8 600 м
[Sc Ac As]
-1.8 -5.2 78 -10 -10 тепло 1014.4 1006.2
18 25.03 Ю 10-16
{19}
2000 м метель {ливн. осадки} 8/5 600 м
[Sc Ac trans]
-2.0 -6.6 71 -11 -11 тепло 1015.8 1007.6
21 25.03 СВ 4
{17}
10 км {метель} 8/4 600 м
[Sc Ac trans]
-1.6 -6.8 68 -7 -7 тепло 1017.1 1008.9
00 26.03 Ю 10-15
{16}
4000 м слаб. ливневой снег {метель} 9/8 600 м
[Cb cap Ac As]
-2.0 -5.2 79 -11 -11 тепло 1016.5 1008.3 -2.3 0.9 68
03 26.03 Ю 10-15
{17}
4000 м слаб. ливневой снег {метель} 8/6 600 м
[Cb cap Ac trans]
-2.0 -5.5 77 -11 -11 тепло 1017.7 1009.5
06 26.03 ЮЗ 10-15
{16}
4000 м слаб. ливневой снег {метель} 9/6 600 м
[Cb cap Ac trans]
-0.8 -4.6 75 -9 -9 тепло 1018.5 1010.3
09 26.03 ЮЗ 10-10
{15}
50 км {ливн. осадки, метель} 6/3 600 м
[Sc Ac lent Cc]
+1.1 -5.2 63 -6 -6 тепло 1020.2 1012.0
12 26.03 Ю 6
{15}
50 км {ливн. осадки, метель} 8/5 600 м
[Sc Ac trans]
+0.6 -5.9 62 -5 -5 тепло 1020.2 1012.0 +1.4 0.0
15 26.03 В 6-11
{12}
20 км 10/0
[Ac und]
+0.8 -6.0 60 -5 -5 тепло 1019.6 1011.5
18 26.03 В 7-13
{13}
20 км 10/0 2000 м
[Ac und]
+0.2 -6.5 61 -6 -6 тепло 1019.5 1011.3

 

Местоположение метеостанции Норильск (Красноярский край, Россия): широта 69.33 долгота 88.30 высота над уровнем моря 65 м.

В архиве по умолчанию представлена погода в Норильске за последнюю неделю. Архивные данные за месяц целиком и за предыдущие месяцы, начиная с января 2011 года, Вы можете получить, выбрав интересующий диапазон дат из раскрывающегося списка и нажав кнопку "Ввод!".


*Определитесь, кто Вы:
робот инопланетянин человек

Внимание! Время в таблицах - всемирное. Для получения местного времени необходимо прибавить поправку, которая равна 7 ч.

Смотрите также архив погоды в соседних городах и на ближайших метеорологических станциях:

Погода в Потапово (Красноярский край, Россия) (110 км)
Погода в Снежногорске (Красноярский край, Россия) (138 км)
Погода в Крестах Таймырских (Красноярский край, Россия) (181 км)
Погода в Горбиачине (Красноярский край, Россия) (207 км)
Погода в Карауле (Красноярский край, Россия) (215 км)
Погода в Игарке (Красноярский край, Россия) (219 км)
Погода в Светлогорске (Красноярский край, Россия) (265 км)
Погода в Волочанке (Красноярский край, Россия) (297 км)
Погода в Курейке (Красноярский край, Россия) (321 км)
Погода в Советской Речке (Красноярский край, Россия) (336 км)

Пояснения к столбцам:

Ветер - указаны скорость ветра в м/с - средняя за 10 мин, порывы в срок и между сроками (в фигурных скобках) и направление, откуда дует ветер: С - северный, СВ - северо-восточный, В - восточный, ЮВ - юго-восточный, Ю - южный, ЮЗ - юго-западный, З - западный, СЗ - северо-западный.
Видимость - горизонтальная дальность видимости в метрах или километрах. При видимости от 1 до 10 км при отсутствии осадков обычно наблюдается дымка, при ухудшении видимости до 1 км и менее - туман. В сухую погоду видимость может ухудшаться дымом, пылью или мглою.
Явления - указаны атмосферные явления, наблюдавшиеся в срок или в последний час перед сроком; фигурными скобками обозначены явления, наблюдавшиеся между сроками (за 1-3 часа до срока); квадратными скобками обозначены град или гололедные отложения с указанием их диаметра в мм.
Облачность - указаны через наклонную черту общая и нижняя облачность в баллах и высота нижней границы облаков в метрах; квадратными скобками обозначены формы облаков: Ci - перистые, Cs - перисто-слоистые, Cc - перисто-кучевые, Ac - высококучевые, As - высокослоистые, Sc - слоисто-кучевые, Ns - слоисто-дождевые, Cu - кучевые, Cb - кучево-дождевые. Подробнее классификацию облаков см. в Атласе облаков (PDF).
T - Температура воздуха - температура, измеренная на высоте 2 м над землей.
Td - Температура точки росы - температура, при понижении до которой содержащийся в воздухе водяной пар достигнет насыщения.
f - Относительная влажность воздуха - влажноcть воздуха, измеренная на высоте 2 м над землей.
Te - Эффективная температура - температура, которую ощущает одетый по сезону человек в тени. Характеристика душности погоды. При расчете учитывается влияние влажности воздуха и скорости ветра на теплоощущения человека.
Tes - Эффективная температура на солнце - температура, которую ощущает человек, с поправкой на солнечный нагрев. Характеристика знойности погоды. Зависит от высоты солнца над горизонтом, облачности и скорости ветра. Ночью, в пасмурную погоду, а также при ветре 12 м/с и более поправка равна нулю.
P - Атмосферное давление - приведенное к уровню моря атмосферное давление.
Po - Атмосферное давление - измеренное на уровне метеостанции атмосферное давление.
Tmin - Минимальная температура - минимум температуры воздуха на высоте 2 м над землей.
Tmax - Максимальная температура - максимум температуры воздуха на высоте 2 м над землей.
R - Количество осадков - Количество выпавших осадков за период времени, мм. При наведении курсора мыши на число - период времени, за который выпало указанное количество осадков.
R24 - Количество осадков - Количество выпавших осадков за 24 часа, мм.
S - Снежный покров - Высота снежного покрова, см. При наведении курсора мыши на число - состояние снежного покрова и степень покрытия местности в баллах.